Location: C�mpuri de-Sus
(45.9500°N, 22.5500°E)
Time: 01:25:46
(UTC+00:00)

Cosmos 839 Rocket - Pass Details

Date: 05 June 2022
Orbit: 968 x 2085 km, 65.9° (Epoch: 06 July)

Event Time Altitude Azimuth Distance (km) Brightness Sun altitude
Rises 20:55:47 0° 325° (NW) 3,696 8.6 -18.3°
Reaches altitude 10° 20:58:13 10° 327° (NNW) 2,788 7.6 -18.4°
Maximum altitude 21:04:39 80° 55° (NE) 1,133 4.3 -18.8°
Enters shadow 21:09:06 27° 140° (SE) 2,156 5.2 -19.1°
